Weather History for Wayne, NE

Change the Weather History Date:

Tuesday, February 5, 2013

  Actual Average (KOFK) Record (KOFK)
Temperature  
Mean Temperature 35 °F 24 °F  
Max Temperature 46 °F 35 °F 61 °F (1904)
Min Temperature 24 °F 14 °F -30 °F (1936)
Degree Days  
Heating Degree Days 30 41  
Month to date heating degree days 205  
Since 1 July heating degree days 4227  
Cooling Degree Days 0 0  
Month to date cooling degree days 0  
Year to date cooling degree days 0  
Moisture  
Dew Point 27 °F    
Average Humidity 71    
Maximum Humidity 96    
Minimum Humidity 45    
Precipitation  
Precipitation 0.00 in 0.02 in 0.72 in (1911)
Month to date precipitation 0.12  
Year to date precipitation 0.71  
Snow  
Snow 0.00 in 0.20 in - ()
Month to date snowfall 1.1  
Since 1 July snowfall 18.4  
Snow Depth -    
Sea Level Pressure  
Sea Level Pressure 29.93 in    
Wind  
Wind Speed 9 mph (NW)    
Max Wind Speed 21 mph    
Max Gust Speed 28 mph    
Visibility 10 miles    
Events      
T = Trace of Precipitation, MM = Missing Value Source: NWS Daily Summary

Daily Weather History Graph

Daily Weather History Graph

Search for Another Location

Airport:

Trip Planner

Search our weather history database for the weather conditions in past years. The results will help you decide how hot, cold, wet, or windy it might be!

Date:

Astronomy

Feb. 05, 2013 Rise Set
Actual Time 7:36 AM CST 5:47 PM CST
Civil Twilight 7:07 AM CST 6:17 PM CST
Nautical Twilight 6:33 AM CST 6:50 PM CST
Astronomical Twilight 6:01 AM CST 7:23 PM CST
Moon 3:21 AM CST (2/5) 1:04 PM CST (2/5)
Length of Visible Light 11h 10m
Length of Day
10h 11m
Waning Crescent, 26% of the Moon is Illuminated
Feb 5
Waning Crescent
Feb 10
New
Feb 17
First Quarter
Feb 25
Full
Mar 4
Last Quarter

Hourly Weather History & Observations

Time (CST) Temp. Windchill Dew Point Humidity Pressure Visibility Wind Dir Wind Speed Gust Speed Precip Events Conditions
12:15 AM 28.9 °F 18.6 °F 25.3 °F 86% 29.81 in 10.0 mi SSW 12.7 mph - N/A   Overcast
12:35 AM 29.3 °F 19.6 °F 25.7 °F 86% 29.80 in 10.0 mi SSW 11.5 mph - N/A   Overcast
12:55 AM 29.8 °F 20.9 °F 26.2 °F 86% 29.80 in 10.0 mi SW 10.4 mph - N/A   Overcast
1:15 AM 29.7 °F 20.1 °F 26.4 °F 88% 29.80 in 10.0 mi SSW 11.5 mph - N/A   Overcast
1:35 AM 30.0 °F 21.1 °F 26.4 °F 86% 29.79 in 10.0 mi SSW 10.4 mph - N/A   Overcast
1:55 AM 30.0 °F 24.1 °F 26.6 °F 87% 29.78 in 10.0 mi SSW 5.8 mph - N/A   Overcast
2:15 AM 29.5 °F 22.5 °F 26.4 °F 88% 29.79 in 10.0 mi SSW 6.9 mph - N/A   Mostly Cloudy
2:35 AM 30.2 °F 23.4 °F 26.6 °F 86% 29.78 in 10.0 mi SW 6.9 mph - N/A   Clear
2:55 AM 27.5 °F 22.2 °F 25.0 °F 90% 29.78 in 10.0 mi South 4.6 mph - N/A   Clear
3:15 AM 27.7 °F - 25.7 °F 92% 29.78 in 10.0 mi Calm Calm - N/A   Clear
3:35 AM 30.7 °F 26.0 °F 27.1 °F 86% 29.78 in 10.0 mi WSW 4.6 mph - N/A   Clear
3:55 AM 31.8 °F 27.3 °F 27.3 °F 83% 29.78 in 10.0 mi WSW 4.6 mph - N/A   Mostly Cloudy
4:15 AM 31.3 °F 26.6 °F 27.5 °F 86% 29.78 in 10.0 mi WSW 4.6 mph - N/A   Overcast
4:35 AM 32.0 °F 26.4 °F 27.9 °F 85% 29.77 in 10.0 mi SW 5.8 mph - N/A   Overcast
4:55 AM 34.5 °F 29.4 °F 28.8 °F 79% 29.78 in 10.0 mi West 5.8 mph - N/A   Overcast
5:15 AM 36.7 °F 32.0 °F 28.2 °F 71% 29.78 in 10.0 mi WNW 5.8 mph - N/A   Overcast
5:35 AM 38.1 °F 34.6 °F 28.2 °F 68% 29.79 in 10.0 mi WNW 4.6 mph - N/A   Overcast
5:55 AM 38.5 °F 34.1 °F 28.4 °F 67% 29.79 in 10.0 mi WNW 5.8 mph - N/A   Overcast
6:15 AM 36.9 °F 30.1 °F 27.5 °F 69% 29.80 in 10.0 mi WNW 9.2 mph - N/A   Scattered Clouds
6:35 AM 37.4 °F 31.4 °F 27.5 °F 67% 29.81 in 10.0 mi WNW 8.1 mph - N/A   Clear
6:55 AM 35.2 °F 29.5 °F 27.0 °F 72% 29.82 in 10.0 mi NW 6.9 mph - N/A   Clear
7:15 AM 34.3 °F 29.2 °F 27.1 °F 75% 29.83 in 10.0 mi NW 5.8 mph - N/A   Clear
7:35 AM 35.6 °F 28.0 °F 27.5 °F 72% 29.84 in 10.0 mi NW 10.4 mph - N/A   Clear
7:55 AM 36.3 °F 29.5 °F 28.0 °F 72% 29.86 in 10.0 mi NW 9.2 mph - N/A   Clear
8:15 AM 36.3 °F 29.5 °F 28.4 °F 73% 29.87 in 10.0 mi NW 9.2 mph - N/A   Clear
8:35 AM 38.1 °F 29.5 °F 29.3 °F 71% 29.89 in 10.0 mi NW 15.0 mph - N/A   Clear
8:55 AM 39.0 °F 30.3 °F 30.0 °F 70% 29.91 in 10.0 mi NW 16.1 mph - N/A   Clear
9:15 AM 40.1 °F 30.5 °F 30.0 °F 67% 29.91 in 10.0 mi NNW 20.7 mph 24.2 mph N/A   Clear
9:35 AM 40.6 °F 32.3 °F 30.0 °F 66% 29.92 in 10.0 mi NNW 16.1 mph 21.9 mph N/A   Clear
9:55 AM 41.4 °F 33.0 °F 29.5 °F 63% 29.93 in 10.0 mi NNW 17.3 mph 25.3 mph N/A   Clear
10:15 AM 41.9 °F 34.0 °F 29.3 °F 61% 29.94 in 10.0 mi NNW 16.1 mph 25.3 mph N/A   Clear
10:35 AM 42.4 °F 34.1 °F 29.3 °F 60% 29.96 in 10.0 mi NNW 18.4 mph - N/A   Clear
10:55 AM 42.8 °F 34.8 °F 29.3 °F 59% 29.96 in 10.0 mi NNW 17.3 mph 20.7 mph N/A   Clear
11:15 AM 42.8 °F 34.8 °F 28.6 °F 57% 29.97 in 10.0 mi NW 17.3 mph 20.7 mph N/A   Clear
11:35 AM 43.7 °F 36.9 °F 28.0 °F 54% 29.98 in 10.0 mi NW 13.8 mph 21.9 mph N/A   Clear
11:55 AM 44.4 °F 36.4 °F 27.5 °F 52% 29.98 in 10.0 mi NNW 19.6 mph - N/A   Clear
12:15 PM 44.6 °F 36.6 °F 27.5 °F 51% 29.98 in 10.0 mi NNW 19.6 mph 24.2 mph N/A   Clear
12:35 PM 44.8 °F 38.3 °F 27.3 °F 50% 29.98 in 10.0 mi NNW 13.8 mph 25.3 mph N/A   Clear
12:55 PM 45.0 °F 38.2 °F 27.5 °F 50% 29.98 in 10.0 mi NW 15.0 mph 20.7 mph N/A   Clear
1:15 PM 45.1 °F 38.1 °F 27.7 °F 50% 29.99 in 10.0 mi NNW 16.1 mph 20.7 mph N/A   Scattered Clouds
1:35 PM 45.7 °F 39.1 °F 27.9 °F 50% 29.98 in 10.0 mi NNW 15.0 mph 20.7 mph N/A   Scattered Clouds
1:55 PM 46.0 °F 39.6 °F 27.9 °F 49% 29.99 in 10.0 mi NNW 15.0 mph 27.6 mph N/A   Scattered Clouds
2:15 PM 45.9 °F 40.8 °F 27.3 °F 48% 29.98 in 10.0 mi NW 10.4 mph 19.6 mph N/A   Scattered Clouds
2:35 PM 45.7 °F 39.5 °F 27.3 °F 49% 29.98 in 10.0 mi NNW 13.8 mph - N/A   Clear
2:55 PM 46.4 °F 40.1 °F 26.8 °F 46% 29.98 in 10.0 mi NW 15.0 mph - N/A   Clear
3:15 PM 46.4 °F 40.4 °F 26.8 °F 46% 29.98 in 10.0 mi NNW 13.8 mph 18.4 mph N/A   Clear
3:35 PM 45.9 °F 40.8 °F 26.2 °F 46% 29.98 in 10.0 mi NNW 10.4 mph - N/A   Clear
3:55 PM 45.9 °F 40.0 °F 25.7 °F 45% 29.98 in 10.0 mi NNW 12.7 mph - N/A   Clear
4:15 PM 45.5 °F 39.9 °F 25.3 °F 45% 29.99 in 10.0 mi NNW 11.5 mph - N/A   Clear
4:35 PM 44.6 °F 38.1 °F 25.5 °F 47% 29.99 in 10.0 mi NNW 13.8 mph - N/A   Clear
4:55 PM 43.7 °F 38.6 °F 24.8 °F 47% 30.00 in 10.0 mi NNW 9.2 mph - N/A   Clear
5:15 PM 42.3 °F 37.9 °F 24.6 °F 50% 30.00 in 10.0 mi NNW 6.9 mph - N/A   Clear
5:35 PM 39.6 °F 36.3 °F 23.9 °F 54% 30.00 in 10.0 mi NNW 4.6 mph - N/A   Clear
5:55 PM 37.4 °F 33.8 °F 24.4 °F 60% 30.01 in 10.0 mi North 4.6 mph - N/A   Clear
6:15 PM 33.3 °F - 23.4 °F 67% 30.02 in 10.0 mi Calm Calm - N/A   Clear
6:35 PM 32.9 °F - 23.5 °F 68% 30.02 in 10.0 mi Calm Calm - N/A   Clear
6:55 PM 28.2 °F - 22.8 °F 80% 30.02 in 10.0 mi Calm Calm - N/A   Clear
7:15 PM 30.2 °F 25.4 °F 24.4 °F 79% 30.02 in 10.0 mi NE 4.6 mph - N/A   Clear
7:35 PM 27.7 °F 22.4 °F 23.2 °F 83% 30.03 in 10.0 mi NNE 4.6 mph - N/A   Clear
7:55 PM 27.5 °F - 23.5 °F 85% 30.04 in 10.0 mi Calm Calm - N/A   Clear
8:15 PM 27.5 °F - 24.4 °F 88% 30.04 in 10.0 mi Calm Calm - N/A   Clear
8:35 PM 24.8 °F - 22.3 °F 90% 30.04 in 10.0 mi Calm Calm - N/A   Clear
8:55 PM 25.5 °F - 23.9 °F 94% 30.04 in 10.0 mi Calm Calm - N/A   Clear
9:15 PM 25.3 °F - 24.1 °F 95% 30.04 in 10.0 mi Calm Calm - N/A   Clear
9:35 PM 25.2 °F - 23.9 °F 95% 30.04 in 10.0 mi Calm Calm - N/A   Clear
9:55 PM 28.4 °F - 27.5 °F 96% 30.05 in 10.0 mi Calm Calm - N/A   Clear
10:15 PM 27.3 °F - 25.7 °F 94% 30.05 in 10.0 mi Calm Calm - N/A   Clear
10:35 PM 29.5 °F - 27.5 °F 92% 30.04 in 10.0 mi Calm Calm - N/A   Clear
10:55 PM 30.2 °F - 28.0 °F 92% 30.03 in 10.0 mi Calm Calm - N/A   Clear
11:15 PM 30.2 °F 26.7 °F 27.7 °F 90% 30.03 in 10.0 mi South 3.5 mph - N/A   Clear
11:35 PM 30.2 °F 24.3 °F 28.0 °F 92% 30.03 in 10.0 mi SSE 5.8 mph - N/A   Scattered Clouds
11:55 PM 30.7 °F - 28.2 °F 90% 30.04 in 10.0 mi Calm Calm - N/A   Mostly Cloudy